| time (UTC) | temp F | wind direction | speed knots | gust knots | rain 1hr in | rain 24hr in | rain mn in | humidity % | barometer mb |
| 20260502210427 | 56 | 174 | 3.5 | 9.6 | 0.00 | 0.00 | 0.00 | 21 | 1013.5 |
| 20260502205427 | 57 | 226 | 3.5 | 10.4 | 0.00 | 0.00 | 0.00 | 22 | 1013.5 |
| 20260502204427 | 56 | 165 | 1.7 | 11.3 | 0.00 | 0.00 | 0.00 | 24 | 1013.6 |
| 20260502203427 | 55 | 179 | 2.6 | 9.6 | 0.00 | 0.00 | 0.00 | 28 | 1013.6 |
| 20260502202428 | 55 | 147 | 0.9 | 9.6 | 0.00 | 0.00 | 0.00 | 27 | 1013.8 |
| 20260502201427 | 54 | 105 | 1.7 | 9.6 | 0.00 | 0.00 | 0.00 | 29 | 1013.8 |
| 20260502200427 | 53 | 151 | 2.6 | 9.6 | 0.00 | 0.00 | 0.00 | 28 | 1013.8 |
| 20260502195427 | 53 | 159 | 1.7 | 9.6 | 0.00 | 0.00 | 0.00 | 30 | 1013.8 |
| 20260502194427 | 52 | 140 | 3.5 | 8.7 | 0.00 | 0.00 | 0.00 | 28 | 1013.7 |
| 20260502193427 | 52 | 142 | 2.6 | 7.8 | 0.00 | 0.00 | 0.00 | 33 | 1013.9 |
| 20260502192427 | 51 | 110 | 3.5 | 11.3 | 0.00 | 0.00 | 0.00 | 34 | 1013.9 |
| 20260502191427 | 52 | 116 | 4.3 | 8.7 | 0.00 | 0.00 | 0.00 | 35 | 1013.9 |
| 20260502190427 | 52 | 156 | 4.3 | 9.6 | 0.00 | 0.00 | 0.00 | 35 | 1014.0 |
| 20260502185427 | 52 | 160 | 1.7 | 13.9 | 0.00 | 0.00 | 0.00 | 35 | 1014.1 |
| 20260502184427 | 52 | 132 | 2.6 | 8.7 | 0.00 | 0.00 | 0.00 | 36 | 1014.1 |
| 20260502183427 | 50 | 112 | 2.6 | 11.3 | 0.00 | 0.00 | 0.00 | 39 | 1014.2 |
| 20260502182429 | 49 | 115 | 3.5 | 11.3 | 0.00 | 0.00 | 0.00 | 43 | 1014.2 |
| 20260502181427 | 49 | 111 | 4.3 | 10.4 | 0.00 | 0.00 | 0.00 | 43 | 1014.3 |
| 20260502180427 | 49 | 136 | 1.7 | 9.6 | 0.00 | 0.00 | 0.00 | 45 | 1014.3 |
| 20260502163427 | 44 | 111 | 8.7 | 13.9 | 0.00 | 0.00 | 0.00 | 56 | 1013.8 |
| 20260502162429 | 44 | 102 | 4.3 | 13.9 | 0.00 | 0.00 | 0.00 | 60 | 1013.7 |
| 20260502161427 | 43 | 100 | 7.8 | 13.0 | 0.00 | 0.00 | 0.00 | 60 | 1013.8 |
| 20260502160427 | 43 | 89 | 8.7 | 15.6 | 0.00 | 0.00 | 0.00 | 61 | 1013.7 |
| 20260502152226 | 41 | 99 | 10.4 | 20.9 | 0.00 | 0.00 | 0.00 | 65 | 1013.3 |
| 20260502151226 | 40 | 103 | 12.2 | 17.4 | 0.00 | 0.00 | 0.00 | 67 | 1013.1 |
| 20260502150228 | 40 | 97 | 10.4 | 18.2 | 0.00 | 0.00 | 0.00 | 67 | 1013.1 |
| 20260502130226 | 38 | 89 | 11.3 | 15.6 | 0.00 | 0.00 | 0.00 | 71 | 1012.2 |
| 20260502123225 | 37 | 81 | 7.0 | 14.8 | 0.00 | 0.00 | 0.00 | 72 | 1012.0 |
| 20260502122225 | 38 | 84 | 9.6 | 23.5 | 0.00 | 0.00 | 0.00 | 72 | 1011.8 |
| 20260502121226 | 38 | 80 | 8.7 | 17.4 | 0.00 | 0.00 | 0.00 | 71 | 1011.7 |
| 20260502120225 | 38 | 75 | 9.6 | 18.2 | 0.00 | 0.00 | 0.00 | 71 | 1011.7 |
| 20260502115226 | 38 | 90 | 10.4 | 21.7 | 0.00 | 0.00 | 0.00 | 71 | 1011.7 |
| 20260502114128 | 38 | 94 | 11.3 | 22.6 | 0.00 | 0.00 | 0.00 | 71 | 1011.9 |
| 20260502113128 | 38 | 92 | 9.6 | 18.2 | 0.00 | 0.00 | 0.00 | 71 | 1011.8 |
| 20260502112128 | 39 | 96 | 10.4 | 16.5 | 0.00 | 0.00 | 0.00 | 70 | 1012.0 |
| 20260502111128 | 39 | 89 | 7.0 | 22.6 | 0.00 | 0.00 | 0.00 | 70 | 1012.1 |
| 20260502110128 | 39 | 99 | 10.4 | 18.2 | 0.00 | 0.00 | 0.00 | 71 | 1011.9 |
| 20260502105128 | 39 | 75 | 7.8 | 19.1 | 0.00 | 0.00 | 0.00 | 70 | 1011.9 |
| 20260502104128 | 39 | 92 | 8.7 | 15.6 | 0.00 | 0.00 | 0.00 | 69 | 1012.0 |
| 20260502103128 | 39 | 90 | 8.7 | 18.2 | 0.00 | 0.00 | 0.00 | 68 | 1011.9 |
| 20260502102128 | 39 | 81 | 8.7 | 19.1 | 0.00 | 0.00 | 0.00 | 67 | 1011.9 |
| 20260502101128 | 40 | 85 | 7.0 | 17.4 | 0.00 | 0.00 | 0.00 | 63 | 1012.0 |
| 20260502100129 | 40 | 89 | 10.4 | 19.1 | 0.00 | 0.00 | 0.00 | 61 | 1011.8 |
| 20260502091132 | 42 | 82 | 10.4 | 18.2 | 0.00 | 0.00 | 0.00 | 32 | 1011.8 |
| 20260502090552 | 43 | 85 | 12.2 | 17.4 | 0.00 | 0.00 | 0.00 | 31 | 1011.8 |
| 20260502090133 | 43 | 85 | 12.2 | 17.4 | 0.00 | 0.00 | 0.00 | 31 | 1011.8 |
| 20260502071128 | 45 | 69 | 7.0 | 11.3 | 0.00 | 0.00 | 0.00 | 31 | 1012.1 |
| 20260502070128 | 45 | 67 | 5.2 | 10.4 | 0.00 | 0.00 | 0.00 | 30 | 1012.3 |
| 20260502065128 | 46 | 55 | 6.1 | 11.3 | 0.00 | 0.00 | 0.00 | 29 | 1012.3 |
| 20260502064128 | 46 | 53 | 6.1 | 10.4 | 0.00 | 0.00 | 0.00 | 30 | 1012.2 |
| 20260502063128 | 46 | 44 | 3.5 | 9.6 | 0.00 | 0.00 | 0.00 | 26 | 1012.3 |
| 20260502062128 | 47 | 54 | 5.2 | 10.4 | 0.00 | 0.00 | 0.00 | 20 | 1012.2 |
| 20260502061128 | 47 | 49 | 4.3 | 8.7 | 0.00 | 0.00 | 0.00 | 19 | 1012.1 |
| 20260502060128 | 47 | 39 | 3.5 | 7.8 | 0.00 | 0.00 | 0.00 | 17 | 1012.0 |
| 20260502055128 | 47 | 36 | 3.5 | 7.0 | 0.00 | 0.00 | 0.00 | 13 | 1012.0 |
| 20260502054556 | 48 | 354 | 1.7 | 5.2 | 0.00 | 0.00 | 0.00 | 11 | 1012.0 |
| 20260502054128 | 48 | 354 | 1.7 | 5.2 | 0.00 | 0.00 | 0.00 | 11 | 1012.0 |
| 20260502052722 | 48 | 333 | 3.5 | 7.0 | 0.00 | 0.00 | 0.00 | 13 | 1011.9 |
| 20260502051722 | 48 | 328 | 4.3 | 8.7 | 0.00 | 0.00 | 0.00 | 15 | 1011.9 |
| 20260502050721 | 48 | 324 | 4.3 | 7.8 | 0.00 | 0.00 | 0.00 | 16 | 1011.9 |
| 20260502045722 | 47 | 321 | 5.2 | 8.7 | 0.00 | 0.00 | 0.00 | 19 | 1011.8 |
| 20260502044721 | 47 | 317 | 6.1 | 8.7 | 0.00 | 0.00 | 0.00 | 23 | 1011.7 |
| 20260502043722 | 47 | 315 | 4.3 | 9.6 | 0.00 | 0.00 | 0.00 | 24 | 1011.7 |
| 20260502042725 | 47 | 313 | 6.1 | 8.7 | 0.00 | 0.00 | 0.00 | 29 | 1011.6 |
| 20260502041722 | 47 | 313 | 6.1 | 8.7 | 0.00 | 0.00 | 0.00 | 29 | 1011.6 |
| 20260502041206 | 47 | 307 | 7.8 | 10.4 | 0.00 | 0.00 | 0.00 | 27 | 1011.5 |
| 20260502040728 | 47 | 307 | 7.8 | 10.4 | 0.00 | 0.00 | 0.00 | 27 | 1011.5 |
| 20260502035722 | 46 | 311 | 8.7 | 11.3 | 0.00 | 0.00 | 0.00 | 27 | 1011.3 |
| 20260502034721 | 47 | 312 | 6.1 | 9.6 | 0.00 | 0.00 | 0.00 | 27 | 1011.2 |
| 20260502033723 | 47 | 306 | 6.1 | 13.0 | 0.00 | 0.00 | 0.00 | 26 | 1011.2 |
| 20260502032722 | 47 | 311 | 9.6 | 13.0 | 0.00 | 0.00 | 0.00 | 27 | 1010.9 |
| 20260502031721 | 47 | 307 | 7.0 | 14.8 | 0.00 | 0.00 | 0.00 | 27 | 1011.0 |
| 20260502030721 | 47 | 306 | 8.7 | 13.0 | 0.00 | 0.00 | 0.00 | 26 | 1010.7 |
| 20260502025722 | 47 | 309 | 7.8 | 15.6 | 0.00 | 0.00 | 0.00 | 26 | 1010.8 |
| 20260502024724 | 47 | 299 | 8.7 | 14.8 | 0.00 | 0.00 | 0.00 | 27 | 1010.5 |
| 20260502023723 | 47 | 294 | 10.4 | 14.8 | 0.00 | 0.00 | 0.00 | 27 | 1010.5 |
| 20260502022248 | 48 | 289 | 11.3 | 17.4 | 0.00 | 0.00 | 0.00 | 26 | 1010.3 |
| 20260502021723 | 48 | 289 | 11.3 | 17.4 | 0.00 | 0.00 | 0.00 | 26 | 1010.3 |
| 20260502015723 | 48 | 264 | 4.3 | 13.9 | 0.00 | 0.00 | 0.00 | 25 | 1010.3 |
| 20260502014722 | 49 | 276 | 5.2 | 14.8 | 0.00 | 0.00 | 0.00 | 24 | 1010.2 |
| 20260502013722 | 49 | 276 | 9.6 | 16.5 | 0.00 | 0.00 | 0.00 | 23 | 1010.1 |
| 20260502012721 | 50 | 259 | 7.0 | 20.9 | 0.00 | 0.00 | 0.00 | 23 | 1010.0 |
| 20260502011723 | 50 | 271 | 12.2 | 17.4 | 0.00 | 0.00 | 0.00 | 23 | 1010.0 |
| 20260502010721 | 50 | 270 | 7.8 | 20.0 | 0.00 | 0.00 | 0.00 | 23 | 1009.9 |
| 20260502005724 | 51 | 282 | 12.2 | 17.4 | 0.00 | 0.00 | 0.00 | 22 | 1009.9 |
| 20260502004723 | 52 | 269 | 6.1 | 13.9 | 0.00 | 0.00 | 0.00 | 22 | 1009.8 |
| 20260502003724 | 52 | 288 | 7.0 | 18.2 | 0.00 | 0.00 | 0.00 | 22 | 1009.9 |
| 20260502002721 | 51 | 268 | 10.4 | 20.0 | 0.00 | 0.00 | 0.00 | 21 | 1009.9 |
| 20260502001722 | 51 | 240 | 12.2 | 24.3 | 0.00 | 0.00 | 0.00 | 20 | 1009.7 |
| 20260502000722 | 52 | 264 | 12.2 | 20.9 | 0.00 | 0.00 | 0.00 | 20 | 1009.9 |
| 20260501235722 | 52 | 266 | 13.9 | 22.6 | 0.00 | 0.00 | 0.00 | 20 | 1009.8 |
| 20260501234721 | 52 | 261 | 13.0 | 20.9 | 0.00 | 0.00 | 0.00 | 21 | 1009.7 |
| 20260501233721 | 52 | 253 | 6.1 | 23.5 | 0.00 | 0.00 | 0.00 | 19 | 1009.9 |
| 20260501232721 | 53 | 269 | 9.6 | 18.2 | 0.00 | 0.00 | 0.00 | 19 | 1009.8 |
| 20260501231722 | 52 | 246 | 7.8 | 20.0 | 0.00 | 0.00 | 0.00 | 21 | 1009.8 |
| 20260501225721 | 52 | 251 | 10.4 | 16.5 | 0.00 | 0.00 | 0.00 | 23 | 1009.8 |
| 20260501224722 | 52 | 278 | 11.3 | 20.0 | 0.00 | 0.00 | 0.00 | 22 | 1009.8 |
| 20260501223722 | 51 | 239 | 7.0 | 18.2 | 0.00 | 0.00 | 0.00 | 24 | 1009.9 |
| 20260501222724 | 52 | 275 | 11.3 | 22.6 | 0.00 | 0.00 | 0.00 | 24 | 1009.9 |
| 20260501221721 | 52 | 264 | 12.2 | 21.7 | 0.00 | 0.00 | 0.00 | 24 | 1009.9 |
| 20260501215722 | 52 | 254 | 11.3 | 20.0 | 0.00 | 0.00 | 0.00 | 26 | 1009.9 |
| 20260501214727 | 52 | 254 | 7.8 | 25.2 | 0.00 | 0.00 | 0.00 | 24 | 1010.1 |
| 20260501213723 | 52 | 266 | 6.1 | 19.1 | 0.00 | 0.00 | 0.00 | 27 | 1010.1 |
| 20260501212722 | 52 | 236 | 9.6 | 15.6 | 0.00 | 0.00 | 0.00 | 26 | 1010.1 |
| 20260501211722 | 51 | 263 | 10.4 | 21.7 | 0.00 | 0.00 | 0.00 | 29 | 1010.3 |